Location: Bois Neuf
(42.7667°N, 0.6333°E)
Time: 07:42:46
(UTC+00:00)

Cosmos 2297 Rocket - Pass Details

Date: 07 June 2020
Orbit: 841 x 842 km, 71.0° (Epoch: 07 July)

Event Time Altitude Azimuth Distance (km) Brightness Sun altitude
Rises 01:08:24 0° 320° (NW) 3,403 5.8 -22.4°
Reaches altitude 10° 01:11:36 10° 302° (WNW) 2,463 4.8 -22.2°
Enters shadow 01:15:02 18° 264° (W) 1,960 3.9 -22.0°
